CBERS-4

Satellite information

Favourite Embed

Satellite Type and Status

PAYLOADIN ORBIT

Key statistics

Satellite CBERS-4 at a glance.

Uptime

3979

Days in orbit

Revolutions

≈ 14.4

Per day

Orbit

SSO

Sun Synchronous Orbit

Inclination

98.3

Latest

Satellite identification and parameters

Extended collection of information and parameters for CBERS-4.

Object identification

Identified? True

Debris? False

Object name: CBERS-4

International designator: 2014-079A

Object number (NORAD): 40336

Object ID (CCSDS): 40336

Country: PEOPLES REPUBLIC OF CHINA (PRC)

Current information (Y/N): Y

RCS size: LARGE

Orbital parameters

Period: 100.311 minutes

Inclination: 98.3373 deg

SMA: 7151.433 km

Apoapsis: 773.572 km

Periapsis: 773.024 km

RAAN: 1.1731 deg

Eccentricy: 0.00003833

Argument of periapsis: 75.0196 deg

Mean anomaly: 285.1033 deg

Mean motion: 14.35532885 rev/day

Mean motion (dot): 0.00000204 rev/day2

B* drag term: 0.000085638034 1/REarth

Two-line elements (TLE)

Creation date: Oct. 28, 2025, 7:11 p.m.

Reference frame: TEME

Reference center: EARTH

Epoch: Oct. 28, 2025, 3:04 p.m. UTC

TLE line 0: 0 CBERS-4

TLE line 1: 1 40336U 14079A 25301.62824828 .00000204 00000-0 85638-4 0 9998

TLE line 2: 2 40336 98.3373 1.1731 0000383 75.0196 285.1033 14.35532885570734

Live tracking on map

Real-time ground track for satellite CBERS-4.

In-orbit conjunctions

There are no conjunctions computed for CBERS-4, at the moment. Check back to stay up to date, as we update our databases every day.

Go to all conjunctions

Associated space launch

CBERS-4 was lifted into orbit during the mission ‘Long March 4B | CBERS-4’, on board a Long March 4B space rocket.

The launch took place on Dec. 7, 2014, 3:26 a.m. from Launch Complex 9.

For more information about the launch, click the button.

Launch to space Long March 4B | CBERS-4
Long March 4B | CBERS-4

Agency: N/A

Status: Launch Successful

Launch date: Dec. 7, 2014, 3:26 a.m. UTC

Rocket: Long March 4B

Launch pad: Launch Complex 9

Location: Taiyuan Satellite Launch Center, People's Republic of China

...

Latest news about this satellite

There are no fresh news available about this satellite. Check back as we update our databases every day.


Newsletter sign-up

Weekly statistics, charts and insights to help you stay on top of the space industry.